Location: Ajisawe
(8.4333°N, 4.3833°E)
Time: 00:33:00
(UTC+00:00)

Courier 1B Rocket - Pass Details

Date: 30 April 2021
Orbit: 920 x 1202 km, 28.3° (Epoch: 13 May)

Event Time Altitude Azimuth Distance (km) Brightness Sun altitude
Rises 21:56:32 0° 296° (WNW) 3,690 8.5 -55.3°
Enters shadow 21:57:46 - 296° (WNW) 3,254 8.2 -55.5°
Reaches altitude 10° 21:59:07 10° 295° (WNW) 2,779 - -55.8°
Maximum altitude 22:05:55 79° 210° (SSW) 1,083 - -57.0°
Drops below altitude 10° 22:13:17 10° 123° (ESE) 2,993 - -58.2°
Sets 22:16:10 0° 122° (ESE) 3,990 - -58.7°
